sat.trackr.live / text

‹ back to catalog

STARLINK-31321

NORAD 58887 · 2024-020M

PAYLOAD ACTIVE UNKNOWN

§ Identity

Operator
Country
US
Launch date
2024-01-29
Launch site
AFWTR
Launch vehicle
Mass (kg)
RCS (m²)

Purposes: comms

External: N2YO · Heavens-Above · Gunter

§ Orbital elements

Epoch: 2026-05-24T21:53:43.445760Z

Period
93.85 min
Inclination
53.1620°
Eccentricity
0.0000880
Mean motion
15.34387695 rev/d
Perigee alt
462.1 km
Apogee alt
463.3 km
Semi-major
6,840.9 km
B*
2.7093e-5
RAAN
328.1955°
Arg perigee
86.7233°
Mean anomaly
273.3870°
Rev number
13,090

§ Raw data

STARLINK-313211 58887U 24020M   26144.91230840  .00000539  00000+0  27093-4 0  99992 58887  53.1620 328.1955 0000880  86.7233 273.3870 15.34387695130907

JSON: /api/v1/satellites/58887 · /tle

For live sub-satellite position, see the globe view (requires WebGL).

§ Visibility from observer

Set your observer location to see the next 7 days of passes ≥ 10°. The values pass through the URL so the page stays shareable.

No JS? Fill the form by hand. The geolocation button needs JavaScript.